| time (UTC) | temp C | wind direction | speed KPH | gust KPH | rain 1hr cm | rain 24hr cm | rain mn cm | humidity % | barometer mb |
| 20260504082006 | 12 | 1 | 1.6 | 6.4 | 0.00 | 0.00 | 0.00 | 48 | 1013.5 |
| 20260504081006 | 12 | 1 | 3.2 | 9.7 | 0.00 | 0.00 | 0.00 | 47 | 1013.4 |
| 20260504050006 | 15 | 0 | 0.0 | 0.0 | 0.00 | 0.00 | 0.00 | 39 | 1013.4 |
| 20260504045005 | 16 | 0 | 0.0 | 0.0 | 0.00 | 0.00 | 0.00 | 36 | 1013.4 |
| 20260504043006 | 17 | 0 | 0.0 | 0.0 | 0.00 | 0.00 | 0.00 | 32 | 1013.3 |
| 20260504042005 | 17 | 1 | 0.0 | 1.6 | 0.00 | 0.00 | 0.00 | 33 | 1013.3 |
| 20260504041006 | 18 | 1 | 0.0 | 1.6 | 0.00 | 0.00 | 0.00 | 30 | 1013.1 |
| 20260504040006 | 20 | 1 | 1.6 | 6.4 | 0.00 | 0.00 | 0.00 | 27 | 1012.9 |
| 20260504035007 | 21 | 1 | 1.6 | 11.3 | 0.00 | 0.00 | 0.00 | 26 | 1012.9 |
| 20260504034006 | 21 | 1 | 3.2 | 12.9 | 0.00 | 0.00 | 0.00 | 25 | 1012.8 |
| 20260504033006 | 21 | 359 | 3.2 | 11.3 | 0.00 | 0.00 | 0.00 | 24 | 1012.7 |
| 20260504031006 | 22 | 359 | 4.8 | 12.9 | 0.00 | 0.00 | 0.00 | 23 | 1012.6 |
| 20260504030006 | 22 | 359 | 4.8 | 16.1 | 0.00 | 0.00 | 0.00 | 23 | 1012.5 |
| 20260504024006 | 22 | 1 | 6.4 | 14.5 | 0.00 | 0.00 | 0.00 | 24 | 1012.6 |
| 20260504023006 | 23 | 1 | 6.4 | 17.7 | 0.00 | 0.00 | 0.00 | 23 | 1012.5 |
| 20260504022006 | 23 | 359 | 8.0 | 20.9 | 0.00 | 0.00 | 0.00 | 23 | 1012.5 |
| 20260504021007 | 23 | 1 | 11.3 | 25.7 | 0.00 | 0.00 | 0.00 | 22 | 1012.5 |
| 20260504020007 | 24 | 1 | 11.3 | 27.4 | 0.00 | 0.00 | 0.00 | 22 | 1012.7 |
| 20260504015005 | 25 | 1 | 9.7 | 22.5 | 0.00 | 0.00 | 0.00 | 22 | 1012.7 |
| 20260504014006 | 25 | 1 | 8.0 | 17.7 | 0.00 | 0.00 | 0.00 | 22 | 1012.7 |
| 20260504012007 | 25 | 1 | 8.0 | 19.3 | 0.00 | 0.00 | 0.00 | 22 | 1012.7 |
| 20260504011006 | 26 | 1 | 9.7 | 17.7 | 0.00 | 0.00 | 0.00 | 24 | 1012.8 |
| 20260504010006 | 26 | 1 | 9.7 | 24.1 | 0.00 | 0.00 | 0.00 | 23 | 1012.6 |
| 20260504005006 | 26 | 1 | 11.3 | 22.5 | 0.00 | 0.00 | 0.00 | 22 | 1012.8 |
| 20260504004006 | 26 | 1 | 11.3 | 24.1 | 0.00 | 0.00 | 0.00 | 24 | 1012.9 |
| 20260504003006 | 26 | 1 | 9.7 | 22.5 | 0.00 | 0.00 | 0.00 | 22 | 1013.0 |
| 20260504001006 | 26 | 1 | 9.7 | 22.5 | 0.00 | 0.00 | 0.00 | 23 | 1013.2 |
| 20260504000006 | 26 | 1 | 9.7 | 25.7 | 0.00 | 0.00 | 0.00 | 22 | 1013.4 |
| 20260503235006 | 27 | 1 | 9.7 | 22.5 | 0.00 | 0.00 | 0.00 | 23 | 1013.3 |
| 20260503234006 | 26 | 1 | 8.0 | 25.7 | 0.00 | 0.00 | 0.00 | 23 | 1013.3 |
| 20260503233006 | 27 | 1 | 9.7 | 24.1 | 0.00 | 0.00 | 0.00 | 23 | 1013.4 |
| 20260503232007 | 27 | 1 | 8.0 | 19.3 | 0.00 | 0.00 | 0.00 | 24 | 1013.6 |
| 20260503231006 | 26 | 1 | 8.0 | 20.9 | 0.00 | 0.00 | 0.00 | 24 | 1013.7 |
| 20260503230006 | 26 | 1 | 11.3 | 30.6 | 0.00 | 0.00 | 0.00 | 26 | 1013.9 |
| 20260503224007 | 26 | 1 | 8.0 | 20.9 | 0.00 | 0.00 | 0.00 | 28 | 1014.1 |
| 20260503223005 | 26 | 1 | 8.0 | 16.1 | 0.00 | 0.00 | 0.00 | 27 | 1014.2 |
| 20260503221006 | 25 | 1 | 8.0 | 19.3 | 0.00 | 0.00 | 0.00 | 29 | 1014.4 |
| 20260503215006 | 25 | 1 | 3.2 | 12.9 | 0.00 | 0.00 | 0.00 | 31 | 1014.6 |
| 20260503214006 | 25 | 1 | 9.7 | 22.5 | 0.00 | 0.00 | 0.00 | 30 | 1014.8 |
| 20260503212006 | 24 | 1 | 3.2 | 12.9 | 0.00 | 0.00 | 0.00 | 32 | 1015.0 |
| 20260503211006 | 24 | 1 | 6.4 | 16.1 | 0.00 | 0.00 | 0.00 | 31 | 1015.2 |
| 20260503210006 | 24 | 359 | 6.4 | 17.7 | 0.00 | 0.00 | 0.00 | 31 | 1015.5 |
| 20260503205005 | 24 | 1 | 8.0 | 22.5 | 0.00 | 0.00 | 0.00 | 32 | 1015.7 |
| 20260503202007 | 23 | 1 | 8.0 | 16.1 | 0.00 | 0.00 | 0.00 | 32 | 1016.1 |
| 20260503201006 | 23 | 1 | 6.4 | 14.5 | 0.00 | 0.00 | 0.00 | 31 | 1016.3 |
| 20260503195005 | 22 | 1 | 3.2 | 12.9 | 0.00 | 0.00 | 0.00 | 33 | 1016.4 |
| 20260503193006 | 22 | 1 | 4.8 | 11.3 | 0.00 | 0.00 | 0.00 | 33 | 1016.7 |
| 20260503192007 | 21 | 1 | 3.2 | 11.3 | 0.00 | 0.00 | 0.00 | 35 | 1016.8 |
| 20260503190007 | 21 | 359 | 1.6 | 9.7 | 0.00 | 0.00 | 0.00 | 36 | 1017.1 |
| 20260503185007 | 21 | 1 | 3.2 | 8.0 | 0.00 | 0.00 | 0.00 | 37 | 1017.2 |
| 20260503184006 | 20 | 1 | 3.2 | 9.7 | 0.00 | 0.00 | 0.00 | 37 | 1017.3 |
| 20260503183006 | 19 | 2 | 3.2 | 9.7 | 0.00 | 0.00 | 0.00 | 39 | 1017.5 |
| 20260503181006 | 18 | 1 | 3.2 | 9.7 | 0.00 | 0.00 | 0.00 | 40 | 1017.7 |
| 20260503180006 | 18 | 1 | 6.4 | 11.3 | 0.00 | 0.00 | 0.00 | 40 | 1018.0 |
| 20260503175006 | 17 | 1 | 6.4 | 12.9 | 0.00 | 0.00 | 0.00 | 40 | 1018.0 |
| 20260503174006 | 17 | 1 | 1.6 | 8.0 | 0.00 | 0.00 | 0.00 | 43 | 1018.1 |
| 20260503173007 | 16 | 1 | 0.0 | 4.8 | 0.00 | 0.00 | 0.00 | 44 | 1018.1 |
| 20260503172007 | 15 | 1 | 0.0 | 8.0 | 0.00 | 0.00 | 0.00 | 45 | 1018.3 |
| 20260503171006 | 15 | 1 | 1.6 | 8.0 | 0.00 | 0.00 | 0.00 | 46 | 1018.4 |
| 20260503151006 | 11 | 1 | 1.6 | 6.4 | 0.00 | 0.00 | 0.00 | 54 | 1019.3 |